GFSNIL_prec_pwat_192.txt.gz
Precipitable_Water
1.29 1.27 1.28 1.15 1.23 1.21 1.26 1.27 1.35 1.32 1.37 1.34 1.30 1.31 1.20 1.16 1.16 1.15 1.09 1.02 1.01 1.00
1.07 1.06 1.06 1.12 1.16 1.22 1.17 1.24 1.24 1.22 1.20 1.21 1.20 1.13 1.19 1.12 1.16 1.03 0.94 0.89 0.87 0.86
0.97 1.00 1.04 1.04 1.00 1.13 1.08 1.16 1.13 1.18 1.19 1.13 1.08 1.10 1.09 1.05 0.99 0.83 0.81 0.83 0.84 0.83
0.94 0.96 1.01 1.00 0.98 1.01 1.02 1.08 1.03 1.04 1.06 1.02 1.02 1.05 1.03 0.95 0.84 0.81 0.78 0.77 0.72 0.69
0.93 0.97 0.96 0.94 0.98 1.01 1.00 1.01 1.02 1.02 1.00 0.99 0.98 0.94 0.87 0.80 0.75 0.71 0.68 0.68 0.64 0.60
0.85 0.86 0.88 0.93 0.99 1.01 1.01 1.01 1.01 0.99 0.90 0.87 0.84 0.80 0.77 0.74 0.69 0.66 0.63 0.61 0.56 0.52
0.84 0.85 0.87 0.93 0.95 0.94 0.95 0.93 0.92 0.88 0.83 0.82 0.80 0.76 0.72 0.66 0.63 0.64 0.59 0.52 0.48 0.42
0.93 0.94 0.95 0.98 0.95 0.92 0.94 0.94 0.90 0.84 0.83 0.81 0.80 0.76 0.70 0.68 0.63 0.50 0.44 0.40 0.37 0.37
0.96 0.97 0.97 1.00 0.97 0.96 0.96 0.92 0.86 0.85 0.83 0.80 0.78 0.77 0.68 0.55 0.48 0.45 0.40 0.36 0.36 0.38
0.93 0.96 0.95 0.98 0.94 0.94 0.92 0.89 0.87 0.85 0.82 0.78 0.75 0.67 0.57 0.53 0.48 0.42 0.36 0.37 0.37 0.37
0.93 0.91 0.90 0.87 0.89 0.86 0.88 0.87 0.82 0.80 0.77 0.76 0.68 0.63 0.58 0.50 0.47 0.43 0.40 0.37 0.38 0.37
0.81 0.82 0.85 0.83 0.84 0.85 0.85 0.81 0.78 0.78 0.77 0.73 0.68 0.63 0.54 0.51 0.48 0.42 0.38 0.37 0.36 0.34
0.68 0.71 0.77 0.83 0.84 0.86 0.84 0.83 0.83 0.76 0.78 0.77 0.69 0.60 0.56 0.54 0.47 0.42 0.38 0.37 0.37 0.36
0.50 0.56 0.66 0.73 0.82 0.83 0.81 0.79 0.77 0.75 0.77 0.72 0.65 0.60 0.58 0.53 0.48 0.41 0.37 0.37 0.34 0.34

GFSNIL_prec_pwat_198.txt.gz
Precipitable_Water
1.05 1.08 1.10 1.13 1.17 1.13 1.15 1.17 1.21 1.11 1.19 1.14 1.11 1.23 1.27 1.19 1.19 1.29 1.20 1.22 1.26 1.15
0.96 0.98 0.98 1.00 1.01 1.02 1.04 1.05 1.04 1.08 1.05 1.07 1.12 1.14 1.15 1.12 1.10 1.15 1.16 1.15 1.15 1.06
0.83 0.85 0.86 0.86 0.83 0.86 0.93 0.93 0.97 0.99 1.02 1.03 1.06 1.14 1.05 1.06 1.07 1.08 1.09 1.07 1.01 1.03
0.80 0.80 0.80 0.78 0.79 0.82 0.83 0.88 0.90 0.92 0.96 0.99 1.02 0.99 1.04 1.02 1.00 1.00 0.98 0.98 0.96 0.99
0.81 0.79 0.76 0.76 0.77 0.79 0.79 0.81 0.83 0.88 0.91 0.95 0.95 1.02 0.99 0.97 0.98 0.97 0.95 0.97 0.94 0.94
0.82 0.81 0.79 0.78 0.79 0.80 0.81 0.82 0.82 0.84 0.86 0.91 0.96 0.98 1.00 0.97 0.97 0.98 0.97 0.97 0.91 0.87
0.91 0.89 0.89 0.87 0.83 0.81 0.79 0.79 0.82 0.87 0.90 0.92 0.93 0.92 0.95 0.96 0.95 0.94 0.94 0.91 0.89 0.87
0.88 0.87 0.86 0.85 0.84 0.83 0.82 0.82 0.85 0.86 0.87 0.91 0.93 0.93 0.92 0.94 0.91 0.88 0.86 0.84 0.84 0.84
0.83 0.82 0.81 0.82 0.82 0.86 0.88 0.87 0.87 0.88 0.88 0.88 0.91 0.94 0.96 0.93 0.87 0.83 0.78 0.75 0.75 0.77
0.60 0.61 0.63 0.70 0.72 0.72 0.76 0.83 0.83 0.84 0.84 0.89 0.91 0.91 0.90 0.86 0.83 0.80 0.77 0.74 0.70 0.70
0.44 0.45 0.47 0.48 0.50 0.53 0.59 0.64 0.69 0.72 0.78 0.84 0.87 0.89 0.88 0.84 0.80 0.78 0.78 0.76 0.72 0.67
0.37 0.34 0.32 0.32 0.33 0.38 0.45 0.48 0.52 0.60 0.67 0.74 0.81 0.84 0.84 0.85 0.79 0.76 0.75 0.71 0.68 0.61
0.33 0.30 0.29 0.29 0.29 0.31 0.37 0.41 0.46 0.51 0.56 0.66 0.69 0.76 0.81 0.81 0.78 0.73 0.69 0.67 0.64 0.58
0.32 0.31 0.30 0.29 0.30 0.32 0.34 0.40 0.41 0.42 0.45 0.55 0.62 0.67 0.78 0.79 0.76 0.72 0.67 0.65 0.61 0.55

GFSNIL_prec_pwat_201.txt.gz
Precipitable_Water
1.05 1.01 0.99 0.99 0.98 1.06 1.11 1.15 1.13 1.14 1.12 1.14 1.11 1.11 1.04 1.11 1.14 1.14 1.11 1.09 1.10 1.17
0.98 0.98 0.97 0.99 1.02 0.99 0.98 0.96 0.98 0.97 0.99 1.02 1.04 1.06 1.06 1.04 1.05 1.06 1.08 1.07 1.08 1.09
0.84 0.87 0.89 0.89 0.87 0.86 0.84 0.85 0.85 0.85 0.88 0.89 0.92 0.98 1.00 0.99 1.02 0.99 1.04 1.06 1.05 1.07
0.84 0.83 0.84 0.83 0.83 0.82 0.82 0.81 0.80 0.81 0.84 0.84 0.86 0.90 0.91 0.93 0.95 0.95 0.98 0.98 1.01 1.01
0.91 0.90 0.87 0.83 0.82 0.85 0.81 0.80 0.79 0.81 0.80 0.81 0.83 0.85 0.84 0.86 0.92 0.96 0.92 0.96 0.94 0.95
1.00 0.98 0.95 0.95 0.94 0.92 0.86 0.82 0.83 0.81 0.79 0.79 0.79 0.84 0.85 0.87 0.89 0.90 0.93 0.94 0.94 0.95
1.03 1.01 0.99 0.97 0.93 0.90 0.89 0.84 0.82 0.81 0.82 0.83 0.83 0.82 0.84 0.87 0.88 0.90 0.93 0.95 0.95 0.96
1.01 0.99 0.93 0.91 0.90 0.87 0.84 0.83 0.83 0.82 0.83 0.82 0.83 0.86 0.86 0.87 0.89 0.88 0.89 0.93 0.92 0.93
0.88 0.85 0.82 0.82 0.80 0.77 0.75 0.75 0.77 0.77 0.81 0.80 0.85 0.86 0.88 0.88 0.84 0.86 0.89 0.85 0.88 0.88
0.66 0.60 0.57 0.59 0.57 0.57 0.58 0.61 0.59 0.60 0.62 0.63 0.70 0.73 0.76 0.77 0.77 0.80 0.81 0.82 0.81 0.82
0.58 0.56 0.56 0.55 0.52 0.48 0.43 0.41 0.40 0.44 0.48 0.54 0.59 0.65 0.68 0.73 0.75 0.75 0.77 0.75 0.78 0.78
0.58 0.52 0.47 0.41 0.37 0.36 0.36 0.35 0.35 0.35 0.39 0.42 0.44 0.54 0.62 0.66 0.69 0.71 0.72 0.71 0.77 0.80
0.46 0.43 0.37 0.36 0.34 0.34 0.34 0.33 0.35 0.34 0.36 0.39 0.39 0.43 0.49 0.57 0.66 0.64 0.63 0.65 0.75 0.75
0.41 0.39 0.37 0.36 0.36 0.35 0.34 0.33 0.31 0.32 0.32 0.35 0.42 0.43 0.45 0.45 0.45 0.53 0.61 0.61 0.63 0.70

GFSNIL_prec_pwat_207.txt.gz
Precipitable_Water
1.32 1.30 1.28 1.30 1.32 1.35 1.36 1.38 1.47 1.50 1.53 1.49 1.47 1.41 1.30 1.19 1.16 1.14 1.12 1.08 1.09 1.06
1.35 1.32 1.31 1.34 1.37 1.37 1.37 1.38 1.38 1.38 1.34 1.30 1.24 1.10 1.01 0.99 1.01 1.03 1.02 1.03 1.06 1.06
1.30 1.32 1.34 1.35 1.31 1.31 1.29 1.26 1.22 1.16 1.04 0.94 0.91 0.89 0.88 0.86 0.88 0.86 0.91 0.94 0.95 0.99
1.20 1.17 1.13 1.10 1.09 1.08 1.02 0.97 0.92 0.88 0.85 0.84 0.83 0.84 0.82 0.83 0.86 0.86 0.90 0.96 0.95 0.93
1.01 1.00 0.98 0.97 0.96 0.96 0.89 0.89 0.87 0.87 0.87 0.85 0.85 0.86 0.84 0.82 0.84 0.82 0.82 0.86 0.90 0.94
0.93 0.93 0.92 0.93 0.94 0.96 0.95 0.95 0.95 0.95 0.92 0.91 0.90 0.86 0.86 0.83 0.82 0.82 0.82 0.85 0.90 0.90
0.96 0.99 1.00 1.02 1.03 1.02 1.01 0.99 0.97 0.95 0.92 0.91 0.88 0.89 0.90 0.88 0.85 0.86 0.88 0.90 0.89 0.91
1.04 1.06 1.06 1.04 1.03 1.02 1.02 1.03 1.06 1.03 0.96 0.89 0.84 0.84 0.84 0.84 0.82 0.76 0.73 0.76 0.78 0.83
1.05 1.03 1.01 0.99 0.98 0.97 0.90 0.86 0.80 0.78 0.78 0.83 0.81 0.74 0.69 0.72 0.69 0.68 0.67 0.65 0.69 0.76
0.97 0.95 0.92 0.90 0.86 0.85 0.86 0.87 0.86 0.84 0.80 0.74 0.65 0.61 0.53 0.54 0.56 0.55 0.56 0.59 0.58 0.57
0.87 0.84 0.81 0.83 0.85 0.87 0.86 0.83 0.79 0.71 0.62 0.56 0.55 0.54 0.51 0.49 0.47 0.46 0.46 0.46 0.47 0.48
0.80 0.87 0.91 0.90 0.86 0.82 0.76 0.64 0.61 0.59 0.57 0.54 0.50 0.47 0.42 0.43 0.44 0.42 0.38 0.39 0.42 0.42
0.91 0.87 0.86 0.83 0.78 0.70 0.65 0.60 0.57 0.53 0.49 0.45 0.40 0.41 0.42 0.42 0.40 0.35 0.32 0.33 0.37 0.41
0.87 0.83 0.77 0.68 0.65 0.59 0.55 0.52 0.47 0.43 0.41 0.39 0.38 0.35 0.35 0.34 0.33 0.32 0.31 0.31 0.32 0.36